Location: Piotrkow Trybunalski
(51.4000°N, 19.6830°E)
Time: 20:55:42
(UTC+02:00)

Explorer 7 - Pass Details

Date: 13 September 2024
Orbit: 460 x 606 km, 50.3° (Epoch: 12 October)

Event Time Altitude Azimuth Distance (km) Brightness Sun altitude
Exits shadow 04:23:13 28° 188° (S) 909 7.6 -17.1°
Maximum altitude 04:24:14 33° 154° (SSE) 797 7.6 -17.0°
Drops below altitude 10° 04:27:31 10° 89° (E) 1,608 10.2 -16.5°
Sets 04:29:46 0° 79° (E) 2,482 11.6 -16.2°
